AIC428 VOBL-VIDP

Flight info

Callsign AIC428
Flight time 1h 35m
Altitude 41000
Route LATID7B LATID Q22 HIA/N0485F400 W20 BAVOX BAVOX6D
Aircraft A359/H-SDE2E3GHIJ3J4J5LM1ORWXY/LB1D1

Departure

Time 2026-05-06 07:39
Airport Kempegowda International Airport Bengaluru (VOBL)

Arrival

Time 2026-05-06 09:14
Airport Indira Gandhi International Airport (VIDP)
Time Latitude Longitude Altitude Speed Heading
2026-05-06 07:16 13.20091 77.71661 3018 ft 0 kts 180°
2026-05-06 07:29 13.20095 77.71661 3018 ft 2 kts 179°
2026-05-06 07:30 13.20112 77.71661 3022 ft 2 kts 180°
2026-05-06 07:30 13.20128 77.71661 3022 ft 2 kts 179°
2026-05-06 07:30 13.20145 77.71661 3025 ft 2 kts 173°
2026-05-06 07:30 13.20161 77.71656 3025 ft 2 kts 153°
2026-05-06 07:31 13.20174 77.71647 3023 ft 2 kts 134°
2026-05-06 07:31 13.20183 77.71633 3026 ft 2 kts 94°
2026-05-06 07:31 13.20183 77.71616 3026 ft 1 kts 90°
2026-05-06 07:31 13.20183 77.71614 3026 ft 0 kts 90°
2026-05-06 07:34 13.20183 77.71631 3026 ft 6 kts 89°
2026-05-06 07:34 13.20183 77.71699 3019 ft 13 kts 91°
2026-05-06 07:35 13.20182 77.71813 3018 ft 19 kts 90°
2026-05-06 07:35 13.20181 77.71953 3018 ft 20 kts 90°
2026-05-06 07:35 13.20181 77.72084 3018 ft 10 kts 78°
2026-05-06 07:35 13.20209 77.72110 3018 ft 4 kts 26°
2026-05-06 07:36 13.20243 77.72112 3018 ft 9 kts
2026-05-06 07:36 13.20337 77.72114 3018 ft 17 kts
2026-05-06 07:36 13.20458 77.72115 3018 ft 14 kts
2026-05-06 07:36 13.20511 77.72135 3018 ft 7 kts 54°
2026-05-06 07:37 13.20518 77.72176 3018 ft 5 kts 82°
2026-05-06 07:37 13.20532 77.72194 3021 ft 4 kts 44°
2026-05-06 07:37 13.20552 77.72199 3018 ft 4 kts
2026-05-06 07:37 13.20593 77.72202 3018 ft 8 kts
2026-05-06 07:38 13.20661 77.72201 3018 ft 10 kts 351°
2026-05-06 07:38 13.20688 77.72152 3022 ft 17 kts 278°
2026-05-06 07:38 13.20694 77.71800 3018 ft 83 kts 270°
2026-05-06 07:38 13.20700 77.70986 3017 ft 143 kts 270°
2026-05-06 07:39 13.20699 77.69838 3360 ft 165 kts 271°
2026-05-06 07:39 13.20809 77.68675 4001 ft 167 kts 293°
2026-05-06 07:39 13.21414 77.67567 4387 ft 191 kts 305°
2026-05-06 07:39 13.22195 77.66363 4579 ft 215 kts 304°
2026-05-06 07:40 13.23041 77.65002 4843 ft 238 kts 303°
2026-05-06 07:40 13.23955 77.63469 5191 ft 262 kts 302°
2026-05-06 07:40 13.24902 77.61818 5815 ft 273 kts 302°
2026-05-06 07:40 13.25861 77.60121 6587 ft 277 kts 302°
2026-05-06 07:41 13.26828 77.58395 7373 ft 281 kts 301°
2026-05-06 07:41 13.27801 77.56631 8142 ft 287 kts 301°
2026-05-06 07:41 13.28823 77.54877 8925 ft 291 kts 307°
2026-05-06 07:41 13.30276 77.53442 9748 ft 292 kts 330°
2026-05-06 07:42 13.32185 77.52727 10376 ft 299 kts 353°
2026-05-06 07:42 13.34307 77.52910 10678 ft 317 kts 19°
2026-05-06 07:42 13.36344 77.53926 11008 ft 335 kts 31°
2026-05-06 07:42 13.38372 77.55188 11554 ft 344 kts 32°
2026-05-06 07:43 13.39506 77.55903 11916 ft 348 kts 32°
2026-05-06 07:43 13.41597 77.57207 12562 ft 353 kts 32°
2026-05-06 07:43 13.43695 77.58499 13220 ft 359 kts 32°
2026-05-06 07:43 13.45888 77.59836 13850 ft 365 kts 31°
2026-05-06 07:44 13.48060 77.61152 14356 ft 371 kts 31°
2026-05-06 07:44 13.50305 77.62506 14889 ft 377 kts 31°
2026-05-06 07:44 13.52648 77.63759 15407 ft 383 kts 23°
2026-05-06 07:44 13.55160 77.64708 15935 ft 387 kts 18°
2026-05-06 07:45 13.57745 77.65557 16496 ft 392 kts 17°
2026-05-06 07:45 13.60362 77.66394 17083 ft 396 kts 16°
2026-05-06 07:45 13.63009 77.67242 17642 ft 399 kts 16°
2026-05-06 07:45 13.65672 77.68099 18194 ft 403 kts 16°
2026-05-06 07:46 13.68362 77.68971 18703 ft 407 kts 16°
2026-05-06 07:46 13.71071 77.69850 19221 ft 410 kts 16°
2026-05-06 07:46 13.73804 77.70739 19695 ft 413 kts 16°
2026-05-06 07:46 13.76524 77.71623 20175 ft 416 kts 16°
2026-05-06 07:47 13.79297 77.72526 20663 ft 419 kts 16°
2026-05-06 07:47 13.82088 77.73435 21139 ft 423 kts 16°
2026-05-06 07:47 13.84911 77.74356 21620 ft 426 kts 16°
2026-05-06 07:47 13.87750 77.75282 22107 ft 429 kts 16°
2026-05-06 07:48 13.89646 77.75900 22441 ft 431 kts 16°
2026-05-06 07:48 13.92525 77.76840 22903 ft 435 kts 16°
2026-05-06 07:48 13.95419 77.77784 23346 ft 438 kts 16°
2026-05-06 07:48 13.98333 77.78736 23748 ft 442 kts 16°
2026-05-06 07:49 14.01273 77.79696 24135 ft 444 kts 16°
2026-05-06 07:49 14.09670 77.82440 25297 ft 452 kts 16°
2026-05-06 07:49 14.21854 77.86425 27152 ft 464 kts 16°
2026-05-06 07:49 14.34327 77.90510 29042 ft 476 kts 17°
2026-05-06 07:50 14.47109 77.94645 30638 ft 487 kts 13°
2026-05-06 07:50 14.60371 77.97105 32047 ft 496 kts
2026-05-06 07:50 14.74345 77.99390 33332 ft 505 kts
2026-05-06 07:50 14.88142 78.01729 34512 ft 509 kts
2026-05-06 07:51 15.02075 78.04097 35956 ft 505 kts
2026-05-06 07:51 15.15900 78.06446 37293 ft 502 kts
2026-05-06 07:51 15.29684 78.08793 38545 ft 499 kts
2026-05-06 07:51 15.43364 78.11099 39588 ft 495 kts
2026-05-06 07:52 15.56901 78.13282 40643 ft 488 kts
2026-05-06 07:52 15.70139 78.15442 40853 ft 488 kts
2026-05-06 07:52 15.96985 78.19841 40865 ft 487 kts
2026-05-06 07:53 16.23787 78.24241 40883 ft 487 kts
2026-05-06 07:53 16.50539 78.28630 40900 ft 486 kts
2026-05-06 07:54 16.77281 78.33029 40917 ft 486 kts
2026-05-06 07:54 17.02155 78.37132 40934 ft 486 kts
2026-05-06 07:55 17.29000 78.39813 40938 ft 482 kts 353°
2026-05-06 07:55 17.55578 78.36147 40907 ft 482 kts 351°
2026-05-06 07:56 17.82190 78.32474 40897 ft 482 kts 351°
2026-05-06 07:56 18.08604 78.28816 40883 ft 481 kts 351°
2026-05-06 07:57 18.35147 78.25128 40878 ft 481 kts 351°
2026-05-06 07:57 18.61710 78.21426 40867 ft 481 kts 351°
2026-05-06 07:58 18.88218 78.17719 40857 ft 480 kts 351°
2026-05-06 07:58 19.14679 78.14009 40858 ft 479 kts 351°
2026-05-06 07:59 19.40962 78.09543 40847 ft 477 kts 347°
2026-05-06 07:59 19.67073 78.04491 40848 ft 477 kts 347°
2026-05-06 08:00 19.93178 77.99467 40846 ft 476 kts 347°
2026-05-06 08:00 20.19132 77.94454 40841 ft 476 kts 347°
2026-05-06 08:01 20.45159 77.89410 40842 ft 475 kts 346°
2026-05-06 08:01 20.71237 77.84506 40847 ft 474 kts 346°
2026-05-06 08:02 20.97140 77.79087 40852 ft 473 kts 346°
2026-05-06 08:02 21.22840 77.73959 40860 ft 472 kts 345°
2026-05-06 08:03 21.48650 77.68770 40877 ft 472 kts 345°
2026-05-06 08:03 21.58624 77.66803 40880 ft 472 kts 346°
2026-05-06 08:04 21.65102 77.65576 40880 ft 472 kts 346°
2026-05-06 08:04 21.71572 77.64347 40881 ft 472 kts 346°
2026-05-06 08:05 21.78042 77.63108 40883 ft 472 kts 345°
2026-05-06 08:05 21.84472 77.61871 40879 ft 472 kts 345°
2026-05-06 08:06 21.90937 77.60626 40878 ft 472 kts 345°
2026-05-06 08:06 21.97402 77.59381 40879 ft 472 kts 345°
2026-05-06 08:07 22.03847 77.58139 40878 ft 472 kts 345°
2026-05-06 08:07 22.10312 77.56893 40877 ft 472 kts 345°
2026-05-06 08:08 22.16774 77.55646 40877 ft 472 kts 345°
2026-05-06 08:08 22.23246 77.54381 40874 ft 472 kts 345°
2026-05-06 08:09 22.29705 77.53117 40870 ft 472 kts 345°
2026-05-06 08:09 22.36125 77.51862 40872 ft 472 kts 345°
2026-05-06 08:10 22.42595 77.50597 40866 ft 472 kts 345°
2026-05-06 08:10 22.49053 77.49335 40868 ft 472 kts 345°
2026-05-06 08:11 22.55519 77.48069 40871 ft 472 kts 345°
2026-05-06 08:11 22.61983 77.46802 40868 ft 471 kts 345°
2026-05-06 08:12 22.68447 77.45534 40869 ft 471 kts 345°
2026-05-06 08:12 22.74863 77.44274 40868 ft 471 kts 345°
2026-05-06 08:13 22.81322 77.43005 40868 ft 471 kts 345°
2026-05-06 08:13 22.87781 77.41735 40870 ft 471 kts 345°
2026-05-06 08:14 22.94234 77.40464 40872 ft 471 kts 345°
2026-05-06 08:14 23.00691 77.39191 40876 ft 471 kts 345°
2026-05-06 08:15 23.07141 77.37919 40878 ft 471 kts 345°
2026-05-06 08:15 23.13549 77.36653 40882 ft 470 kts 345°
2026-05-06 08:16 23.19994 77.35379 40885 ft 470 kts 344°
2026-05-06 08:16 23.26442 77.34110 40886 ft 471 kts 345°
2026-05-06 08:17 23.32988 77.33459 40886 ft 475 kts 351°
2026-05-06 08:17 23.39606 77.33101 40890 ft 476 kts 352°
2026-05-06 08:18 23.46236 77.32811 40876 ft 476 kts 352°
2026-05-06 08:18 23.52858 77.32519 40881 ft 476 kts 351°
2026-05-06 08:19 23.59492 77.32214 40872 ft 476 kts 351°
2026-05-06 08:19 23.66123 77.31904 40867 ft 476 kts 351°
2026-05-06 08:20 23.72706 77.31595 40870 ft 476 kts 351°
2026-05-06 08:20 23.79335 77.31284 40868 ft 477 kts 351°
2026-05-06 08:21 23.85962 77.30973 40869 ft 477 kts 351°
2026-05-06 08:21 23.92593 77.30662 40870 ft 477 kts 351°
2026-05-06 08:22 23.99225 77.30350 40872 ft 477 kts 351°
2026-05-06 08:22 24.05867 77.30038 40870 ft 477 kts 351°
2026-05-06 08:23 24.12510 77.29724 40873 ft 477 kts 351°
2026-05-06 08:23 24.19153 77.29412 40873 ft 477 kts 351°
2026-05-06 08:24 24.25767 77.29100 40878 ft 477 kts 351°
2026-05-06 08:24 24.32412 77.28786 40878 ft 478 kts 351°
2026-05-06 08:25 24.39059 77.28471 40879 ft 478 kts 351°
2026-05-06 08:25 24.45704 77.28157 40879 ft 478 kts 351°
2026-05-06 08:26 24.52309 77.27845 40883 ft 478 kts 351°
2026-05-06 08:26 24.58958 77.27530 40883 ft 478 kts 351°
2026-05-06 08:27 24.65608 77.27214 40883 ft 478 kts 351°
2026-05-06 08:27 24.72252 77.26900 40874 ft 478 kts 351°
2026-05-06 08:28 24.78914 77.26614 40878 ft 478 kts 351°
2026-05-06 08:28 24.85524 77.26339 40885 ft 478 kts 351°
2026-05-06 08:29 24.92183 77.26059 40883 ft 478 kts 351°
2026-05-06 08:29 24.98838 77.25776 40886 ft 478 kts 351°
2026-05-06 08:30 25.05490 77.25506 40888 ft 478 kts 351°
2026-05-06 08:30 25.12142 77.25273 40888 ft 478 kts 351°
2026-05-06 08:31 25.18768 77.25042 40885 ft 478 kts 351°
2026-05-06 08:31 25.25428 77.24804 40888 ft 478 kts 351°
2026-05-06 08:32 25.32089 77.24562 40890 ft 478 kts 351°
2026-05-06 08:32 25.38743 77.24320 40887 ft 478 kts 351°
2026-05-06 08:33 25.45399 77.24077 40893 ft 478 kts 351°
2026-05-06 08:33 25.52065 77.23834 40892 ft 478 kts 351°
2026-05-06 08:34 25.62048 77.23469 40890 ft 479 kts 351°
2026-05-06 08:35 25.68666 77.23227 40894 ft 479 kts 351°
2026-05-06 08:35 25.74215 77.23024 40895 ft 479 kts 351°
2026-05-06 08:36 25.80883 77.22780 40896 ft 479 kts 351°
2026-05-06 08:36 25.87536 77.22537 40894 ft 479 kts 351°
2026-05-06 08:37 25.94201 77.22293 40892 ft 479 kts 351°
2026-05-06 08:37 26.00880 77.22047 40893 ft 479 kts 351°
2026-05-06 08:38 26.07533 77.21798 40890 ft 478 kts 351°
2026-05-06 08:38 26.14188 77.21546 40891 ft 478 kts 351°
2026-05-06 08:39 26.20839 77.21235 40893 ft 477 kts 350°
2026-05-06 08:39 26.27480 77.20895 40894 ft 477 kts 350°
2026-05-06 08:40 26.34117 77.20557 40896 ft 477 kts 350°
2026-05-06 08:40 26.40715 77.20220 40895 ft 477 kts 351°
2026-05-06 08:41 26.47363 77.19879 40885 ft 477 kts 351°
2026-05-06 08:41 26.54001 77.19538 40888 ft 477 kts 351°
2026-05-06 08:42 26.60638 77.19197 40884 ft 477 kts 351°
2026-05-06 08:42 26.67271 77.18855 40869 ft 477 kts 351°
2026-05-06 08:42 26.70577 77.18685 40649 ft 476 kts 351°
2026-05-06 08:43 26.73843 77.18517 40416 ft 475 kts 351°
2026-05-06 08:43 26.77154 77.18346 40088 ft 474 kts 351°
2026-05-06 08:43 26.80451 77.18175 39408 ft 476 kts 351°
2026-05-06 08:43 26.83770 77.18001 38686 ft 479 kts 351°
2026-05-06 08:44 26.87098 77.17826 37877 ft 481 kts 351°
2026-05-06 08:44 26.90451 77.17644 37101 ft 482 kts 351°
2026-05-06 08:44 26.93794 77.17462 36375 ft 481 kts 351°
2026-05-06 08:44 26.97139 77.17283 35667 ft 481 kts 351°
2026-05-06 08:45 27.00479 77.17107 34966 ft 480 kts 351°
2026-05-06 08:45 27.03820 77.16932 34248 ft 480 kts 351°
2026-05-06 08:45 27.07165 77.16758 33458 ft 479 kts 351°
2026-05-06 08:45 27.10506 77.16582 32530 ft 480 kts 351°
2026-05-06 08:46 27.13839 77.16407 31845 ft 477 kts 351°
2026-05-06 08:46 27.17139 77.16237 31285 ft 472 kts 352°
2026-05-06 08:46 27.20361 77.16070 30706 ft 467 kts 352°
2026-05-06 08:46 27.23600 77.15901 30127 ft 463 kts 352°
2026-05-06 08:47 27.26807 77.15734 29482 ft 459 kts 352°
2026-05-06 08:47 27.29990 77.15569 28883 ft 454 kts 352°
2026-05-06 08:47 27.33126 77.15406 28318 ft 449 kts 352°
2026-05-06 08:47 27.36228 77.15245 27760 ft 443 kts 352°
2026-05-06 08:48 27.39296 77.15086 27206 ft 438 kts 352°
2026-05-06 08:48 27.42324 77.14927 26655 ft 433 kts 352°
2026-05-06 08:48 27.45323 77.14769 26211 ft 426 kts 353°
2026-05-06 08:48 27.48236 77.14621 26090 ft 411 kts 353°
2026-05-06 08:49 27.51016 77.14479 25946 ft 398 kts 352°
2026-05-06 08:49 27.53749 77.14339 25777 ft 386 kts 352°
2026-05-06 08:49 27.56397 77.14203 25608 ft 375 kts 352°
2026-05-06 08:49 27.58966 77.14069 25445 ft 365 kts 352°
2026-05-06 08:50 27.61469 77.13937 25283 ft 355 kts 352°
2026-05-06 08:50 27.63911 77.13848 25054 ft 349 kts 355°
2026-05-06 08:50 27.66330 77.14209 24697 ft 352 kts
2026-05-06 08:50 27.68701 77.14900 24351 ft 351 kts
2026-05-06 08:51 27.71017 77.15638 23991 ft 349 kts
2026-05-06 08:51 27.73369 77.16394 23637 ft 346 kts
2026-05-06 08:51 27.75646 77.17123 23254 ft 343 kts
2026-05-06 08:51 27.77944 77.17855 22784 ft 342 kts
2026-05-06 08:52 27.80226 77.18580 22317 ft 340 kts
2026-05-06 08:52 27.82508 77.19304 21870 ft 339 kts 10°
2026-05-06 08:52 27.84773 77.20023 21423 ft 337 kts 10°
2026-05-06 08:52 27.87022 77.20737 20987 ft 335 kts 10°
2026-05-06 08:53 27.89252 77.21446 20458 ft 330 kts 10°
2026-05-06 08:53 27.91435 77.22141 19972 ft 321 kts 10°
2026-05-06 08:53 27.93563 77.22820 19583 ft 312 kts 10°
2026-05-06 08:53 27.95623 77.23476 19225 ft 303 kts 10°
2026-05-06 08:54 27.97603 77.24107 18878 ft 295 kts 10°
2026-05-06 08:54 27.99574 77.24733 18529 ft 295 kts 10°
2026-05-06 08:54 28.01552 77.25360 18188 ft 295 kts 11°
2026-05-06 08:54 28.03526 77.25987 17829 ft 294 kts 11°
2026-05-06 08:55 28.05503 77.26548 17467 ft 290 kts
2026-05-06 08:55 28.07494 77.26915 17140 ft 288 kts
2026-05-06 08:55 28.09469 77.27220 16834 ft 286 kts
2026-05-06 08:55 28.11437 77.27513 16514 ft 286 kts
2026-05-06 08:56 28.13408 77.27803 16193 ft 284 kts
2026-05-06 08:56 28.15363 77.28089 15882 ft 281 kts
2026-05-06 08:56 28.17303 77.28373 15565 ft 280 kts
2026-05-06 08:56 28.19232 77.28655 15242 ft 279 kts
2026-05-06 08:57 28.21125 77.28931 14929 ft 277 kts
2026-05-06 08:57 28.21542 77.28992 14876 ft 277 kts
2026-05-06 08:57 28.22365 77.29112 14725 ft 277 kts
2026-05-06 08:58 28.24274 77.29391 14414 ft 275 kts
2026-05-06 08:58 28.26155 77.29666 14114 ft 274 kts
2026-05-06 08:58 28.28062 77.29946 13797 ft 273 kts
2026-05-06 08:58 28.29941 77.30221 13473 ft 272 kts
2026-05-06 08:59 28.31810 77.30495 13212 ft 268 kts
2026-05-06 08:59 28.33629 77.30762 13064 ft 260 kts
2026-05-06 08:59 28.35396 77.31013 12936 ft 252 kts
2026-05-06 08:59 28.37119 77.30939 12665 ft 246 kts 345°
2026-05-06 09:00 28.38654 77.30202 12390 ft 241 kts 324°
2026-05-06 09:00 28.39818 77.28858 12137 ft 240 kts 304°
2026-05-06 09:00 28.40474 77.27124 11935 ft 237 kts 289°
2026-05-06 09:00 28.40873 77.25338 11812 ft 230 kts 287°
2026-05-06 09:01 28.41229 77.23591 11662 ft 225 kts 287°
2026-05-06 09:01 28.41583 77.21866 11427 ft 224 kts 287°
2026-05-06 09:01 28.41942 77.20142 11185 ft 223 kts 287°
2026-05-06 09:01 28.42302 77.18431 10942 ft 223 kts 287°
2026-05-06 09:02 28.42673 77.16687 10780 ft 229 kts 287°
2026-05-06 09:02 28.43048 77.14935 10538 ft 231 kts 287°
2026-05-06 09:02 28.43429 77.13150 10192 ft 233 kts 287°
2026-05-06 09:02 28.43812 77.11360 9894 ft 232 kts 287°
2026-05-06 09:03 28.44194 77.09584 9618 ft 231 kts 287°
2026-05-06 09:03 28.44573 77.07828 9346 ft 228 kts 287°
2026-05-06 09:03 28.44952 77.06072 9094 ft 228 kts 286°
2026-05-06 09:03 28.45332 77.04317 8830 ft 229 kts 286°
2026-05-06 09:04 28.45714 77.02563 8564 ft 229 kts 286°
2026-05-06 09:04 28.46100 77.00799 8299 ft 229 kts 286°
2026-05-06 09:04 28.46486 76.99041 8053 ft 230 kts 286°
2026-05-06 09:04 28.46870 76.97296 7792 ft 230 kts 286°
2026-05-06 09:05 28.47251 76.95532 7538 ft 227 kts 285°
2026-05-06 09:05 28.47616 76.93822 7419 ft 218 kts 285°
2026-05-06 09:05 28.47973 76.92155 7220 ft 215 kts 285°
2026-05-06 09:05 28.48324 76.90514 6992 ft 213 kts 285°
2026-05-06 09:06 28.48668 76.88885 6754 ft 211 kts 285°
2026-05-06 09:06 28.49008 76.87278 6538 ft 207 kts 284°
2026-05-06 09:06 28.49350 76.85693 6278 ft 206 kts 285°
2026-05-06 09:06 28.49689 76.84126 6061 ft 206 kts 285°
2026-05-06 09:07 28.50043 76.82544 5850 ft 206 kts 286°
2026-05-06 09:07 28.50783 76.81176 5659 ft 206 kts 317°
2026-05-06 09:07 28.52076 76.80504 5469 ft 208 kts 350°
2026-05-06 09:07 28.53526 76.80600 5211 ft 210 kts
2026-05-06 09:08 28.54286 76.80774 5061 ft 209 kts 10°
2026-05-06 09:08 28.55700 76.81138 4778 ft 208 kts 11°
2026-05-06 09:08 28.57106 76.81510 4479 ft 207 kts 11°
2026-05-06 09:08 28.58496 76.81919 4181 ft 207 kts 18°
2026-05-06 09:09 28.59641 76.82905 3883 ft 210 kts 50°
2026-05-06 09:09 28.60410 76.84326 3617 ft 211 kts 60°
2026-05-06 09:09 28.60733 76.85910 3319 ft 212 kts 91°
2026-05-06 09:09 28.60261 76.87483 3053 ft 212 kts 121°
2026-05-06 09:10 28.59396 76.88755 2976 ft 202 kts 130°
2026-05-06 09:10 28.58726 76.90067 2982 ft 182 kts 112°
2026-05-06 09:10 28.58367 76.91356 2982 ft 167 kts 104°
2026-05-06 09:10 28.58090 76.92618 2980 ft 164 kts 103°
2026-05-06 09:11 28.57818 76.93880 2973 ft 165 kts 103°
2026-05-06 09:11 28.57543 76.95158 2866 ft 168 kts 103°
2026-05-06 09:11 28.57261 76.96446 2651 ft 166 kts 103°
2026-05-06 09:11 28.56988 76.97709 2431 ft 163 kts 103°
2026-05-06 09:12 28.56719 76.98958 2219 ft 162 kts 102°
2026-05-06 09:12 28.56451 77.00206 2020 ft 162 kts 102°
2026-05-06 09:12 28.56180 77.01456 1827 ft 163 kts 103°
2026-05-06 09:12 28.55912 77.02695 1611 ft 164 kts 103°
2026-05-06 09:13 28.55632 77.03956 1381 ft 164 kts 104°
2026-05-06 09:13 28.55342 77.05214 1132 ft 164 kts 103°
2026-05-06 09:13 28.55086 77.06474 945 ft 165 kts 102°
2026-05-06 09:13 28.54820 77.07746 787 ft 165 kts 103°
2026-05-06 09:14 28.54559 77.08938 755 ft 140 kts 104°
2026-05-06 09:14 28.54392 77.09719 751 ft 58 kts 103°
2026-05-06 09:14 28.54413 77.10050 755 ft 18 kts 70°
2026-05-06 09:14 28.54478 77.10127 754 ft 6 kts 351°
2026-05-06 09:15 28.54493 77.10114 755 ft 2 kts 314°
2026-05-06 09:15 28.54500 77.10097 754 ft 5 kts 296°
2026-05-06 09:15 28.54521 77.10015 758 ft 16 kts 285°
2026-05-06 09:15 28.54558 77.09858 755 ft 25 kts 284°
2026-05-06 09:16 28.54603 77.09660 755 ft 27 kts 284°
2026-05-06 09:16 28.54652 77.09452 755 ft 28 kts 285°
2026-05-06 09:16 28.54703 77.09235 754 ft 23 kts 282°